| time (UTC) | temp C | wind direction | speed KPH | gust KPH | rain 1hr cm | rain 24hr cm | rain mn cm | humidity % | barometer mb |
| 20260508233053 | 11 | 9 | 0.0 | 1.6 | 0.00 | 0.00 | 0.00 | 39 | 1008.1 |
| 20260508231528 | 11 | 336 | 0.0 | 4.8 | 0.00 | 0.00 | 0.00 | 37 | 1008.1 |
| 20260508230005 | 12 | 319 | 0.0 | 4.8 | 0.00 | 0.00 | 0.00 | 36 | 1007.9 |
| 20260508224545 | 12 | 330 | 0.0 | 12.9 | 0.00 | 0.00 | 0.00 | 36 | 1007.7 |
| 20260508223024 | 12 | 111 | 1.6 | 14.5 | 0.00 | 0.00 | 0.00 | 36 | 1007.6 |
| 20260508221600 | 12 | 292 | 0.0 | 4.8 | 0.00 | 0.00 | 0.00 | 37 | 1007.6 |
| 20260508220038 | 13 | 310 | 4.8 | 16.1 | 0.00 | 0.00 | 0.00 | 35 | 1007.4 |
| 20260508214511 | 13 | 316 | 0.0 | 9.7 | 0.00 | 0.00 | 0.00 | 37 | 1007.3 |
| 20260508213100 | 13 | 283 | 3.2 | 12.9 | 0.00 | 0.00 | 0.00 | 36 | 1007.4 |
| 20260508211532 | 14 | 321 | 4.8 | 20.9 | 0.00 | 0.00 | 0.00 | 33 | 1007.1 |
| 20260508210005 | 13 | 233 | 4.8 | 24.1 | 0.00 | 0.00 | 0.00 | 34 | 1006.9 |
| 20260508204544 | 14 | 300 | 3.2 | 19.3 | 0.00 | 0.00 | 0.00 | 34 | 1006.8 |
| 20260508203034 | 13 | 222 | 6.4 | 17.7 | 0.00 | 0.00 | 0.00 | 37 | 1006.7 |
| 20260508201519 | 12 | 109 | 3.2 | 22.5 | 0.00 | 0.00 | 0.00 | 36 | 1006.7 |
| 20260508200124 | 12 | 302 | 8.0 | 19.3 | 0.00 | 0.00 | 0.00 | 36 | 1006.6 |
| 20260508194534 | 13 | 263 | 3.2 | 14.5 | 0.00 | 0.00 | 0.00 | 36 | 1006.3 |
| 20260508193012 | 13 | 317 | 4.8 | 14.5 | 0.00 | 0.00 | 0.00 | 35 | 1006.1 |
| 20260508191547 | 13 | 18 | 6.4 | 19.3 | 0.00 | 0.00 | 0.00 | 34 | 1005.9 |
| 20260508190032 | 13 | 279 | 4.8 | 16.1 | 0.00 | 0.00 | 0.00 | 32 | 1006.0 |
| 20260508184513 | 13 | 267 | 1.6 | 12.9 | 0.00 | 0.00 | 0.00 | 34 | 1005.7 |
| 20260508183053 | 13 | 293 | 1.6 | 19.3 | 0.00 | 0.00 | 0.00 | 31 | 1005.8 |
| 20260508181604 | 14 | 311 | 1.6 | 16.1 | 0.00 | 0.00 | 0.00 | 31 | 1005.7 |
| 20260508180016 | 14 | 318 | 6.4 | 19.3 | 0.00 | 0.00 | 0.00 | 31 | 1005.8 |
| 20260508174606 | 13 | 323 | 0.0 | 19.3 | 0.00 | 0.00 | 0.00 | 32 | 1005.8 |
| 20260508173030 | 13 | 327 | 0.0 | 14.5 | 0.00 | 0.00 | 0.00 | 33 | 1005.7 |
| 20260508171506 | 13 | 216 | 3.2 | 14.5 | 0.00 | 0.00 | 0.00 | 36 | 1005.8 |
| 20260508170048 | 13 | 348 | 1.6 | 16.1 | 0.00 | 0.00 | 0.00 | 34 | 1005.8 |
| 20260508164534 | 13 | 313 | 3.2 | 12.9 | 0.00 | 0.00 | 0.00 | 34 | 1005.7 |
| 20260508163007 | 13 | 332 | 4.8 | 20.9 | 0.00 | 0.00 | 0.00 | 34 | 1006.0 |
| 20260508161547 | 13 | 275 | 3.2 | 12.9 | 0.00 | 0.00 | 0.00 | 34 | 1006.0 |
| 20260508160036 | 14 | 331 | 3.2 | 14.5 | 0.00 | 0.00 | 0.00 | 33 | 1006.0 |
| 20260508154503 | 14 | 304 | 3.2 | 12.9 | 0.00 | 0.00 | 0.00 | 34 | 1006.1 |
| 20260508153043 | 13 | 327 | 1.6 | 14.5 | 0.00 | 0.00 | 0.00 | 35 | 1006.1 |
| 20260508151521 | 13 | 294 | 0.0 | 11.3 | 0.00 | 0.00 | 0.00 | 36 | 1006.2 |
| 20260508150101 | 13 | 5 | 4.8 | 17.7 | 0.00 | 0.00 | 0.00 | 36 | 1006.3 |
| 20260508144536 | 13 | 309 | 6.4 | 14.5 | 0.00 | 0.00 | 0.00 | 36 | 1006.3 |
| 20260508143011 | 13 | 192 | 1.6 | 14.5 | 0.00 | 0.00 | 0.00 | 38 | 1006.4 |
| 20260508141558 | 13 | 258 | 1.6 | 9.7 | 0.00 | 0.00 | 0.00 | 37 | 1006.5 |
| 20260508140032 | 12 | 339 | 4.8 | 16.1 | 0.00 | 0.00 | 0.00 | 39 | 1006.7 |
| 20260508134508 | 12 | 310 | 1.6 | 14.5 | 0.00 | 0.00 | 0.00 | 41 | 1006.9 |
| 20260508133050 | 11 | 277 | 4.8 | 16.1 | 0.00 | 0.00 | 0.00 | 42 | 1006.9 |
| 20260508131520 | 11 | 269 | 3.2 | 11.3 | 0.00 | 0.00 | 0.00 | 46 | 1006.9 |
| 20260508130057 | 11 | 298 | 1.6 | 8.0 | 0.00 | 0.00 | 0.00 | 47 | 1007.1 |
| 20260508124531 | 10 | 327 | 0.0 | 8.0 | 0.00 | 0.00 | 0.00 | 50 | 1007.0 |
| 20260508123017 | 9 | 282 | 0.0 | 9.7 | 0.00 | 0.00 | 0.00 | 52 | 1007.1 |
| 20260508121603 | 8 | 293 | 1.6 | 8.0 | 0.00 | 0.00 | 0.00 | 52 | 1007.2 |
| 20260508120035 | 7 | 326 | 0.0 | 6.4 | 0.00 | 0.00 | 0.00 | 56 | 1007.2 |
| 20260508114501 | 7 | 305 | 0.0 | 6.4 | 0.00 | 0.00 | 0.00 | 59 | 1007.2 |
| 20260508113041 | 6 | 250 | 0.0 | 1.6 | 0.00 | 0.00 | 0.00 | 61 | 1007.2 |
| 20260508111523 | 5 | 333 | 0.0 | 0.0 | 0.00 | 0.00 | 0.00 | 64 | 1007.1 |
| 20260508110105 | 3 | 329 | 0.0 | 0.0 | 0.00 | 0.00 | 0.00 | 69 | 1007.1 |
| 20260508104541 | 3 | 329 | 0.0 | 0.0 | 0.00 | 0.00 | 0.00 | 72 | 1007.1 |
| 20260508103028 | 3 | 329 | 0.0 | 0.0 | 0.00 | 0.00 | 0.00 | 73 | 1007.0 |
| 20260508101619 | 3 | 329 | 0.0 | 0.0 | 0.00 | 0.00 | 0.00 | 71 | 1006.7 |
| 20260508100033 | 3 | 329 | 0.0 | 0.0 | 0.00 | 0.00 | 0.00 | 69 | 1006.5 |
| 20260508094519 | 2 | 211 | 0.0 | 0.0 | 0.00 | 0.00 | 0.00 | 71 | 1006.4 |
| 20260508093006 | 1 | 316 | 0.0 | 0.0 | 0.00 | 0.00 | 0.00 | 74 | 1006.2 |
| 20260508091549 | 1 | 339 | 0.0 | 0.0 | 0.00 | 0.00 | 0.00 | 76 | 1006.1 |
| 20260508090027 | 1 | 332 | 0.0 | 0.0 | 0.00 | 0.03 | 0.00 | 77 | 1005.8 |
| 20260508084501 | 1 | 332 | 0.0 | 0.0 | 0.00 | 0.03 | 0.00 | 75 | 1005.6 |
| 20260508083048 | 2 | 332 | 0.0 | 0.0 | 0.00 | 0.03 | 0.00 | 74 | 1005.6 |
| 20260508081517 | 2 | 332 | 0.0 | 0.0 | 0.00 | 0.03 | 0.00 | 74 | 1005.6 |
| 20260508080055 | 2 | 332 | 0.0 | 0.0 | 0.00 | 0.03 | 0.00 | 72 | 1005.5 |
| 20260508074528 | 2 | 332 | 0.0 | 0.0 | 0.00 | 0.03 | 0.00 | 71 | 1005.2 |
| 20260508073016 | 3 | 332 | 0.0 | 0.0 | 0.00 | 0.03 | 0.00 | 68 | 1005.3 |
| 20260508071550 | 3 | 332 | 0.0 | 0.0 | 0.00 | 0.03 | 0.00 | 66 | 1005.2 |
| 20260508070022 | 3 | 332 | 0.0 | 0.0 | 0.00 | 0.03 | 0.00 | 65 | 1005.2 |
| 20260508064615 | 4 | 332 | 0.0 | 0.0 | 0.00 | 0.03 | 0.00 | 63 | 1005.2 |
| 20260508063035 | 4 | 331 | 0.0 | 0.0 | 0.00 | 0.03 | 0.00 | 62 | 1005.4 |
| 20260508061516 | 5 | 322 | 0.0 | 0.0 | 0.00 | 0.03 | 0.00 | 61 | 1005.5 |
| 20260508060047 | 5 | 323 | 0.0 | 0.0 | 0.00 | 0.03 | 0.00 | 62 | 1005.5 |
| 20260508054520 | 4 | 337 | 0.0 | 0.0 | 0.00 | 0.03 | 0.00 | 65 | 1005.7 |
| 20260508053056 | 5 | 342 | 0.0 | 0.0 | 0.00 | 0.03 | 0.00 | 65 | 1005.8 |
| 20260508051529 | 5 | 350 | 0.0 | 0.0 | 0.00 | 0.03 | 0.00 | 65 | 1006.0 |
| 20260508050020 | 5 | 350 | 0.0 | 0.0 | 0.00 | 0.08 | 0.00 | 65 | 1006.2 |
| 20260508044552 | 5 | 350 | 0.0 | 0.0 | 0.00 | 0.08 | 0.00 | 65 | 1006.1 |
| 20260508043025 | 6 | 350 | 0.0 | 0.0 | 0.00 | 0.08 | 0.00 | 62 | 1006.1 |
| 20260508041601 | 6 | 350 | 0.0 | 0.0 | 0.00 | 0.08 | 0.00 | 61 | 1006.1 |
| 20260508040039 | 6 | 350 | 0.0 | 0.0 | 0.00 | 0.10 | 0.08 | 59 | 1006.2 |
| 20260508034531 | 7 | 350 | 0.0 | 0.0 | 0.00 | 0.10 | 0.08 | 56 | 1006.1 |
| 20260508033007 | 7 | 320 | 0.0 | 0.0 | 0.00 | 0.10 | 0.08 | 56 | 1006.2 |
| 20260508031546 | 8 | 320 | 0.0 | 0.0 | 0.00 | 0.10 | 0.08 | 53 | 1006.1 |
| 20260508030020 | 8 | 320 | 0.0 | 0.0 | 0.00 | 0.10 | 0.08 | 50 | 1006.2 |
| 20260508024555 | 9 | 320 | 0.0 | 0.0 | 0.00 | 0.10 | 0.08 | 47 | 1006.1 |
| 20260508023042 | 10 | 320 | 0.0 | 0.0 | 0.00 | 0.10 | 0.08 | 47 | 1006.0 |
| 20260508021528 | 10 | 9 | 0.0 | 0.0 | 0.00 | 0.10 | 0.08 | 44 | 1005.8 |
| 20260508020058 | 10 | 50 | 0.0 | 0.0 | 0.00 | 0.13 | 0.08 | 43 | 1005.7 |
| 20260508014546 | 11 | 313 | 0.0 | 6.4 | 0.00 | 0.13 | 0.08 | 41 | 1005.3 |
| 20260508013012 | 11 | 66 | 0.0 | 3.2 | 0.00 | 0.13 | 0.08 | 41 | 1005.2 |
| 20260508011549 | 11 | 329 | 0.0 | 4.8 | 0.00 | 0.13 | 0.08 | 40 | 1005.0 |
| 20260508010027 | 11 | 329 | 0.0 | 4.8 | 0.00 | 0.13 | 0.08 | 40 | 1004.8 |
| 20260508004515 | 11 | 333 | 0.0 | 8.0 | 0.00 | 0.13 | 0.08 | 40 | 1004.6 |
| 20260508003058 | 12 | 319 | 0.0 | 1.6 | 0.00 | 0.13 | 0.08 | 42 | 1004.4 |
| 20260508001530 | 12 | 319 | 0.0 | 0.0 | 0.00 | 0.13 | 0.08 | 40 | 1004.0 |
| 20260508000003 | 13 | 319 | 0.0 | 3.2 | 0.00 | 0.13 | 0.08 | 38 | 1003.9 |
| 20260507234543 | 13 | 240 | 1.6 | 6.4 | 0.00 | 0.13 | 0.08 | 36 | 1003.7 |